Hauptseite
METAR-TAF:

METAR-TAF

Flughäfen :

Épinal, Frankreich

Flughafen Epinal-Mirecourt

Breite: 48-19-31N, Länge: 6-04-00E, Höhe: 330 m

Beobachtung

Neuester Wetterbericht von vor 12 Minuten, um 10:00 UTC
Wind 5 kt aus Süd/Südwest, variierte zwischen Süd und West/Südwest
Temperatur 22°C
Luftfeuchtigkeit 50%
Luftdruck 1027 hPa
Sichtweite 10 km oder mehr
keine Wolken unter 1500 m und keine Kumulonimbus oder Gewitterwolken

METAR: LFSG 191000Z AUTO 21005KT 170V250 CAVOK 22/11 Q1027

Zeit: 12:12 (10:12 UTC)


TAF: fehlend

Wetterbeobachtungen und Prognosen von mehr als 4000 Flughäfen (METAR und TAF Bericht).

Die verfügbaren Stationen werden durch gelbe und rote Markierungen auf der Karte dargestellt.

Führen Sie die Maus auf sie, um den Namen der Station zu sehen.

Darauf klicken, um die Beobachtung von Wetterbeobachtungen und Prognosen zu sehen.

Um die Karte zu ändern : klicken Sie auf den grünen Tasten mit einem schwarzen Kreuz Zum Vergrößern, auf den grünen Button mit einem Gedankenstrich zu verkleinern, oder auf die grünen Pfeile für benachbarte Karten.


METAR-TAF: